GW5167 Weather Reports


Display with metric or nautical units.
time (UTC)temp
F
wind
direction
speed
MPH
gust
MPH
rain 1hr
in
rain 24hr
in
rain mn
in
humidity
%
barometer
mb
20260505063831 47 7 5.0 6.0 0.00 0.00 0.00 46 1005.8
20260505063326 48 307 4.0 4.0 0.00 0.00 0.00 46 1006.0
20260505062823 48 352 4.0 4.0 0.00 0.00 0.00 46 1006.0
20260505062321 48 329 4.0 4.0 0.00 0.00 0.00 45 1006.1
20260505061818 48 350 4.0 4.0 0.00 0.00 0.00 46 1006.0
20260505061316 48 349 3.0 4.0 0.00 0.00 0.00 45 1006.1
20260505060813 48 9 2.0 3.0 0.00 0.00 0.00 46 1005.7
20260505060310 48 330 1.0 1.0 0.00 0.00 0.00 47 1005.8
20260505055805 49 357 4.0 6.0 0.00 0.00 0.00 47 1005.8
20260505055303 49 345 5.0 7.0 0.00 0.00 0.00 46 1005.6
20260505054759 49 325 5.0 6.0 0.00 0.00 0.00 45 1005.4
20260505054257 50 343 4.0 4.0 0.00 0.00 0.00 45 1005.5
20260505053755 50 319 6.0 8.0 0.00 0.00 0.00 45 1005.5
20260505053251 50 13 9.0 13.0 0.00 0.00 0.00 45 1005.2
20260505052748 50 340 10.0 11.0 0.00 0.00 0.00 45 1005.0
20260505052245 50 287 9.0 14.0 0.00 0.00 0.00 44 1005.0
20260505051742 50 345 8.0 10.0 0.00 0.00 0.00 45 1005.0
20260505051240 50 343 8.0 11.0 0.00 0.00 0.00 44 1005.0
20260505050738 51 337 12.0 15.0 0.00 0.00 0.00 44 1005.1
20260505050236 51 324 11.0 14.0 0.00 0.00 0.00 43 1005.0
20260505041706 52 352 11.0 13.0 0.00 0.00 0.00 42 1004.5
20260505041203 52 349 10.0 17.0 0.00 0.00 0.00 43 1004.4
20260505040700 52 336 4.0 6.0 0.00 0.00 0.00 44 1004.6
20260505040157 52 271 4.0 7.0 0.00 0.00 0.00 44 1004.5
20260505035654 53 354 5.0 8.0 0.00 0.00 0.00 44 1004.6
20260505035150 53 320 4.0 4.0 0.00 0.00 0.00 44 1004.5
20260505034646 53 347 4.0 4.0 0.00 0.00 0.00 44 1004.7
20260505034144 53 276 3.0 3.0 0.00 0.00 0.00 43 1004.8
20260505033640 53 262 2.0 3.0 0.00 0.00 0.00 43 1004.6
20260505033139 53 263 2.0 3.0 0.00 0.00 0.00 43 1004.4
20260505032636 53 266 5.0 7.0 0.00 0.00 0.00 42 1004.6
20260505032132 53 341 6.0 8.0 0.00 0.00 0.00 43 1004.4
20260505031630 54 226 4.0 4.0 0.00 0.00 0.00 44 1004.3
20260505031125 54 326 3.0 3.0 0.00 0.00 0.00 44 1004.1
20260505030623 55 322 3.0 3.0 0.00 0.00 0.00 43 1004.3
20260505030119 55 277 7.0 9.0 0.00 0.00 0.00 43 1004.1
20260505025614 55 312 5.0 9.0 0.00 0.00 0.00 43 1003.9
20260505025114 55 320 4.0 4.0 0.00 0.00 0.00 43 1003.7
20260505024610 56 320 6.0 8.0 0.00 0.00 0.00 42 1003.7
20260505024108 56 306 5.0 7.0 0.00 0.00 0.00 43 1003.6
20260505023605 57 352 10.0 13.0 0.00 0.00 0.00 42 1003.7
20260505023103 57 332 5.0 8.0 0.00 0.00 0.00 41 1003.6
20260505022600 57 308 6.0 11.0 0.00 0.00 0.00 41 1002.9
20260505022056 57 237 6.0 7.0 0.00 0.00 0.00 40 1002.9
20260505021553 58 296 5.0 8.0 0.00 0.00 0.00 39 1003.0
20260505021050 58 272 5.0 6.0 0.00 0.00 0.00 38 1002.6
20260505020550 58 273 4.0 7.0 0.00 0.00 0.00 38 1002.6
20260505020047 58 245 8.0 14.0 0.00 0.00 0.00 37 1002.4
20260505015544 58 246 3.0 4.0 0.00 0.00 0.00 36 1002.1
20260505015041 58 256 4.0 7.0 0.00 0.00 0.00 36 1001.9
20260505014537 58 243 1.0 2.0 0.00 0.00 0.00 35 1002.2
20260505014035 58 335 2.0 2.0 0.00 0.00 0.00 34 1001.6
20260505013532 58 221 4.0 4.0 0.00 0.00 0.00 34 1001.6
20260505013029 58 302 4.0 8.0 0.00 0.00 0.00 34 1002.2
20260505012527 58 239 5.0 7.0 0.00 0.00 0.00 33 1001.9
20260505012024 58 309 4.0 7.0 0.00 0.00 0.00 33 1001.7
20260505011519 59 309 4.0 6.0 0.00 0.00 0.00 32 1001.6
20260505011017 59 314 6.0 7.0 0.00 0.00 0.00 32 1001.6
20260505010512 59 227 4.0 6.0 0.00 0.00 0.00 33 1001.5
20260505010009 59 280 4.0 7.0 0.00 0.00 0.00 33 1001.3
20260505005505 60 306 7.0 10.0 0.00 0.00 0.00 32 1001.1
20260505005004 60 267 3.0 6.0 0.00 0.00 0.00 33 1001.3
20260505004500 60 267 5.0 6.0 0.00 0.00 0.00 33 1001.3
20260505003956 60 292 4.0 4.0 0.00 0.00 0.00 34 1001.2
20260505003454 61 281 10.0 15.0 0.00 0.00 0.00 34 1001.0
20260505002950 61 263 4.0 7.0 0.00 0.00 0.00 34 1000.9
20260505002446 61 260 6.0 8.0 0.00 0.00 0.00 34 1000.9
20260505001945 62 256 4.0 4.0 0.00 0.00 0.00 34 1000.8
20260505001442 63 4 11.0 13.0 0.00 0.00 0.00 33 1000.7
20260505000938 64 314 10.0 13.0 0.00 0.00 0.00 32 1000.7
20260505000437 64 297 11.0 13.0 0.00 0.00 0.00 31 1000.6
20260504235933 64 195 8.0 13.0 0.00 0.00 0.00 31 1000.7
20260504235431 64 310 4.0 6.0 0.00 0.00 0.00 32 1000.8
20260504234926 65 233 6.0 8.0 0.00 0.00 0.00 31 1000.7
20260504234424 65 314 9.0 11.0 0.00 0.00 0.00 30 1000.8
20260504233920 65 356 9.0 11.0 0.00 0.00 0.00 29 1000.6
20260504233416 66 311 4.0 9.0 0.00 0.00 0.00 30 1000.7
20260504232913 66 16 10.0 15.0 0.00 0.00 0.00 29 1000.6
20260504232410 67 198 7.0 11.0 0.00 0.00 0.00 29 1000.6
20260504231907 67 233 10.0 15.0 0.00 0.00 0.00 30 1000.4
20260504231403 67 314 8.0 10.0 0.00 0.00 0.00 31 1000.2
20260504230900 66 320 9.0 10.0 0.00 0.00 0.00 33 1000.1
20260504230357 68 272 3.0 6.0 0.00 0.00 0.00 32 1000.0
20260504225856 68 351 4.0 6.0 0.00 0.00 0.00 32 1000.0
20260504225352 68 71 4.0 6.0 0.00 0.00 0.00 31 999.9
20260504224850 69 0 7.0 8.0 0.00 0.00 0.00 30 999.8
20260504224346 69 272 5.0 16.0 0.00 0.00 0.00 32 999.7
20260504223843 69 306 4.0 6.0 0.00 0.00 0.00 31 999.8
20260504223338 69 330 9.0 10.0 0.00 0.00 0.00 29 999.7
20260504222835 70 353 16.0 19.0 0.00 0.00 0.00 29 999.5
20260504222332 70 8 11.0 14.0 0.00 0.00 0.00 29 999.4
20260504221831 70 339 9.0 15.0 0.00 0.00 0.00 29 999.2
20260504221327 71 338 11.0 14.0 0.00 0.00 0.00 29 999.2
20260504220824 72 358 15.0 23.0 0.00 0.00 0.00 30 999.1
20260504220321 72 12 8.0 13.0 0.00 0.00 0.00 29 999.1
20260504215818 73 285 6.0 7.0 0.00 0.00 0.00 29 999.0
20260504215314 74 258 3.0 4.0 0.00 0.00 0.00 29 998.9
20260504214811 74 210 3.0 3.0 0.00 0.00 0.00 29 998.7
20260504214308 73 325 4.0 7.0 0.00 0.00 0.00 29 998.7
20260504213804 73 337 7.0 10.0 0.00 0.00 0.00 29 998.7
20260504213300 74 264 5.0 7.0 0.00 0.00 0.00 29 998.7
20260504212758 74 326 16.0 21.0 0.00 0.00 0.00 28 998.5
20260504212254 75 358 7.0 9.0 0.00 0.00 0.00 28 998.5
20260504211752 75 250 4.0 9.0 0.00 0.00 0.00 30 998.4
20260504211247 75 243 4.0 6.0 0.00 0.00 0.00 28 998.4
20260504210745 76 308 8.0 10.0 0.00 0.00 0.00 28 998.2
20260504210242 76 292 4.0 8.0 0.00 0.00 0.00 29 998.3
20260504205739 76 34 10.0 16.0 0.00 0.00 0.00 27 998.3
20260504205237 76 244 6.0 8.0 0.00 0.00 0.00 28 998.1
20260504204735 76 260 4.0 4.0 0.00 0.00 0.00 28 998.2
20260504204233 76 5 5.0 7.0 0.00 0.00 0.00 29 998.1
20260504203732 76 347 4.0 8.0 0.00 0.00 0.00 32 998.1
20260504203229 77 345 5.0 9.0 0.00 0.00 0.00 31 998.0
20260504202729 78 300 3.0 3.0 0.00 0.00 0.00 31 998.2
20260504202226 77 303 5.0 8.0 0.00 0.00 0.00 31 997.9
20260504201723 77 310 11.0 15.0 0.00 0.00 0.00 31 997.9
20260504201220 77 7 10.0 15.0 0.00 0.00 0.00 31 997.9
20260504200718 78 309 7.0 8.0 0.00 0.00 0.00 33 997.8
20260504200214 78 303 7.0 10.0 0.00 0.00 0.00 31 997.9
20260504195711 79 224 5.0 7.0 0.00 0.00 0.00 33 997.6
20260504195206 79 291 7.0 9.0 0.00 0.00 0.00 32 997.5
20260504194704 79 337 5.0 10.0 0.00 0.00 0.00 33 997.5
20260504194159 78 295 8.0 13.0 0.00 0.00 0.00 33 997.4
20260504193656 78 296 5.0 8.0 0.00 0.00 0.00 34 997.5
20260504193154 79 294 4.0 7.0 0.00 0.00 0.00 34 997.4
20260504192652 80 339 5.0 7.0 0.00 0.00 0.00 32 997.3
20260504192150 81 206 2.0 4.0 0.00 0.00 0.00 30 997.3
20260504191648 81 278 2.0 3.0 0.00 0.00 0.00 31 997.2
20260504191143 80 306 4.0 6.0 0.00 0.00 0.00 34 997.1
20260504190640 80 307 4.0 6.0 0.00 0.00 0.00 32 997.1
20260504190137 80 334 5.0 11.0 0.00 0.00 0.00 34 997.2
20260504185633 82 295 6.0 9.0 0.00 0.00 0.00 31 997.0
20260504185130 82 234 3.0 4.0 0.00 0.00 0.00 29 997.1
20260504184626 83 345 3.0 4.0 0.00 0.00 0.00 28 996.7
20260504184121 82 239 4.0 7.0 0.00 0.00 0.00 27 996.8
20260504183618 82 229 3.0 4.0 0.00 0.00 0.00 27 996.9
20260504183116 82 277 3.0 6.0 0.00 0.00 0.00 29 997.1
20260504182614 82 197 2.0 3.0 0.00 0.00 0.00 28 996.7
20260504182111 81 253 3.0 4.0 0.00 0.00 0.00 29 997.0
20260504181608 81 345 6.0 9.0 0.00 0.00 0.00 29 997.2
20260504181105 80 246 3.0 6.0 0.00 0.00 0.00 29 997.2
20260504180604 81 264 4.0 6.0 0.00 0.00 0.00 29 997.0
20260504180103 81 253 5.0 8.0 0.00 0.00 0.00 29 997.0
20260504175600 80 289 3.0 4.0 0.00 0.00 0.00 30 997.0
20260504175056 80 308 4.0 6.0 0.00 0.00 0.00 29 997.1
20260504174555 80 271 2.0 2.0 0.00 0.00 0.00 29 997.1
20260504174051 80 272 3.0 6.0 0.00 0.00 0.00 29 997.2
20260504173548 80 176 3.0 7.0 0.00 0.00 0.00 29 997.2
20260504173045 80 316 5.0 8.0 0.00 0.00 0.00 29 997.3
20260504172541 80 275 4.0 6.0 0.00 0.00 0.00 31 997.2
20260504172038 79 281 2.0 3.0 0.00 0.00 0.00 29 997.4
20260504171535 80 284 4.0 8.0 0.00 0.00 0.00 29 997.4
20260504171032 81 252 3.0 4.0 0.00 0.00 0.00 28 997.1
20260504170527 81 219 4.0 6.0 0.00 0.00 0.00 28 997.2
20260504150912 73 211 6.0 8.0 0.00 0.00 0.00 33 998.3
20260504150408 73 256 6.0 8.0 0.00 0.00 0.00 33 998.3
20260504140835 69 225 1.0 1.0 0.00 0.00 0.00 39 998.7
20260504140330 69 205 4.0 4.0 0.00 0.00 0.00 39 998.8
20260504130759 62 227 2.0 2.0 0.00 0.00 0.00 47 999.4
20260504130255 61 217 0.0 1.0 0.00 0.00 0.00 47 999.4
20260504120219 55 231 1.0 1.0 0.00 0.00 0.00 51 999.4
20260504110647 51 229 0.0 1.0 0.00 0.00 0.00 56 999.6
20260504110143 51 231 0.0 0.0 0.00 0.00 0.00 55 999.8
20260504100609 52 244 1.0 1.0 0.00 0.00 0.00 53 1000.6
20260504100107 52 227 0.0 1.0 0.00 0.00 0.00 53 1000.6
20260504082003 51 227 1.0 2.0 0.00 0.00 0.00 53 1001.6
20260504081500 51 232 1.0 1.0 0.00 0.00 0.00 52 1001.4
20260504080955 52 235 0.0 1.0 0.00 0.00 0.00 52 1001.5
20260504080452 52 235 1.0 1.0 0.00 0.00 0.00 51 1001.6